TimeAKST,TemperatureF,Dew PointF,Humidity,Sea Level PressureIn,VisibilityMPH,Wind Direction,Wind SpeedMPH,Gust SpeedMPH,PrecipitationIn,Events,Conditions,WindDirDegrees,DateUTC
12:03 AM,-16.6,-22.0,76,30.23,10.0,SW,10.4,-,N/A,,Mostly Cloudy,230,2013-02-17 09:03:00
12:53 AM,-16.1,-22.0,74,30.23,10.0,SSW,10.4,-,N/A,,Mostly Cloudy,210,2013-02-17 09:53:00
1:13 AM,-16.6,-22.0,76,30.22,10.0,SW,11.5,-,N/A,,Scattered Clouds,220,2013-02-17 10:13:00
1:53 AM,-16.1,-22.0,74,30.23,10.0,SSW,9.2,-,N/A,,Clear,200,2013-02-17 10:53:00
3:53 AM,-15.0,-20.9,75,30.23,4.0,West,21.9,-,N/A,,Haze,270,2013-02-17 12:53:00
5:53 AM,-15.0,-20.9,75,30.23,4.0,West,21.9,-,N/A,,Haze,270,2013-02-17 14:53:00
6:22 AM,-16.6,-20.2,84,30.23,3.0,West,20.7,-,N/A,,Haze,260,2013-02-17 15:22:00
6:29 AM,-16.6,-22.0,76,30.24,2.5,West,21.9,-,N/A,,Haze,260,2013-02-17 15:29:00
6:53 AM,-16.1,-22.0,74,30.24,2.0,West,25.3,-,N/A,,Haze,260,2013-02-17 15:53:00
7:01 AM,-16.6,-22.0,76,30.24,1.5,West,25.3,-,N/A,,Haze,260,2013-02-17 16:01:00
7:53 AM,-16.1,-22.0,74,30.24,1.2,West,27.6,-,N/A,,Haze,260,2013-02-17 16:53:00
8:53 AM,-17.0,-22.0,78,30.25,1.2,West,25.3,32.2,0.00,,Haze,260,2013-02-17 17:53:00
9:48 AM,-16.6,-22.0,76,30.26,0.8,West,25.3,-,N/A,,Haze,260,2013-02-17 18:48:00
9:53 AM,-16.1,-22.0,74,30.26,0.8,West,25.3,-,N/A,,Haze,260,2013-02-17 18:53:00
10:03 AM,-16.6,-22.0,76,30.26,1.0,West,26.5,-,N/A,,Haze,260,2013-02-17 19:03:00
10:18 AM,-16.6,-22.0,76,30.26,0.8,West,26.5,-,N/A,,Haze,260,2013-02-17 19:18:00
10:53 AM,-16.1,-22.0,74,30.27,0.5,West,27.6,-,N/A,,Haze,260,2013-02-17 19:53:00
11:53 AM,-15.0,-20.9,75,30.29,0.5,West,27.6,-,N/A,,Haze,260,2013-02-17 20:53:00
12:53 PM,-15.0,-20.0,78,30.32,0.8,West,24.2,-,N/A,,Haze,260,2013-02-17 21:53:00
1:53 PM,-14.1,-20.0,75,30.32,0.5,West,28.8,36.8,N/A,,Haze,260,2013-02-17 22:53:00
2:18 PM,-14.8,-20.2,77,30.32,0.5,West,29.9,-,N/A,,Haze,260,2013-02-17 23:18:00
2:39 PM,-14.8,-20.2,77,30.33,0.5,West,29.9,-,N/A,,Haze,260,2013-02-17 23:39:00
2:53 PM,-15.0,-20.0,78,30.34,0.5,West,29.9,36.8,N/A,,Haze,260,2013-02-17 23:53:00
3:53 PM,-15.0,-20.0,78,30.34,0.5,West,29.9,-,N/A,,Haze,260,2013-02-18 00:53:00
4:53 PM,-14.1,-20.0,75,30.36,0.8,West,26.5,-,0.00,,Haze,260,2013-02-18 01:53:00
5:16 PM,-14.8,-20.2,77,30.37,1.2,West,24.2,-,N/A,,Haze,260,2013-02-18 02:16:00
5:29 PM,-14.8,-20.2,77,30.38,2.0,West,24.2,-,N/A,,Haze,260,2013-02-18 02:29:00
5:43 PM,-14.8,-20.2,77,30.38,1.5,West,25.3,-,N/A,,Haze,260,2013-02-18 02:43:00
5:53 PM,-15.0,-20.0,78,30.38,1.2,WSW,27.6,33.4,N/A,,Haze,250,2013-02-18 02:53:00
6:04 PM,-14.8,-20.2,77,30.38,1.5,West,24.2,-,N/A,,Haze,260,2013-02-18 03:04:00
6:18 PM,-14.8,-20.2,77,30.39,2.0,West,23.0,-,N/A,,Haze,260,2013-02-18 03:18:00
6:48 PM,-14.8,-20.2,77,30.40,1.8,West,21.9,-,N/A,,Haze,260,2013-02-18 03:48:00
6:53 PM,-15.0,-20.9,75,30.40,1.5,West,23.0,-,N/A,,Haze,260,2013-02-18 03:53:00
7:00 PM,-14.8,-20.2,77,30.40,1.5,West,23.0,-,N/A,,Haze,260,2013-02-18 04:00:00
7:09 PM,-14.8,-20.2,77,30.40,2.0,West,23.0,-,N/A,,Haze,260,2013-02-18 04:09:00
7:17 PM,-14.8,-20.2,77,30.39,2.5,West,25.3,-,N/A,,Haze,260,2013-02-18 04:17:00
7:30 PM,-14.8,-20.2,77,30.40,1.5,West,24.2,-,N/A,,Haze,260,2013-02-18 04:30:00
7:53 PM,-15.0,-20.9,75,30.40,1.5,West,27.6,33.4,N/A,,Haze,260,2013-02-18 04:53:00
8:53 PM,-16.1,-22.0,74,30.43,2.5,West,21.9,-,N/A,,Haze,260,2013-02-18 05:53:00
9:01 PM,-16.6,-22.0,76,30.42,3.0,West,20.7,-,N/A,,Haze,260,2013-02-18 06:01:00
9:22 PM,-16.6,-20.2,84,30.42,2.5,West,21.9,-,N/A,,Haze,260,2013-02-18 06:22:00
9:30 PM,-14.8,-20.2,77,30.42,3.0,West,23.0,-,N/A,,Haze,260,2013-02-18 06:30:00
9:53 PM,-16.1,-20.9,79,30.43,4.0,West,18.4,-,N/A,,Haze,260,2013-02-18 06:53:00
10:40 PM,-16.6,-20.2,84,30.44,4.0,West,17.3,-,N/A,,Haze,260,2013-02-18 07:40:00
10:53 PM,-15.0,-20.9,75,30.44,3.0,West,19.6,-,N/A,,Haze,260,2013-02-18 07:53:00
11:53 PM,-16.1,-22.0,74,30.43,7.0,West,17.3,-,N/A,,Clear,260,2013-02-18 08:53:00